Wind_Speed
36 38 41 42 43 44 45 46 47 45 44 41 41 42 42 43 43 43 43 44 44 45 46 47 47 46 45 45 45 44 44 43 42 42 42 42 42 42 41 41 40 40 39 40
36 37 40 43 42 44 44 44 45 46 45 42 42 42 42 43 44 43 43 42 43 43 44 45 45 46 46 45 44 43 43 43 43 42 42 42 42 42 42 41 40 40 40 39
35 36 39 42 40 42 43 43 43 46 46 44 44 44 44 43 44 44 43 43 43 43 43 43 43 44 44 44 44 43 43 42 43 42 42 42 41 41 41 41 40 40 39 38
35 36 38 36 37 39 42 42 44 44 45 46 45 45 47 47 45 45 44 43 42 43 43 43 43 43 43 43 43 43 42 42 42 42 42 42 41 41 41 40 39 39 38 37
34 36 36 34 35 36 39 41 42 44 45 46 46 46 47 49 48 46 45 44 43 43 44 44 44 43 42 43 43 43 42 42 42 42 42 42 41 41 41 40 39 38 37 36
32 34 34 32 32 34 37 39 40 42 44 46 47 47 46 47 47 46 46 46 46 45 46 46 46 45 43 42 41 41 42 42 42 43 43 42 41 41 40 38 37 37 37 37
30 31 32 30 31 32 34 35 38 41 42 44 46 47 46 46 45 45 45 44 45 45 46 46 46 45 44 43 42 42 42 43 43 42 42 41 41 40 38 37 37 37 37 37
29 30 29 29 31 33 33 36 38 39 41 43 45 47 46 47 46 46 45 44 44 44 44 45 45 45 45 44 43 43 43 43 43 42 41 41 40 38 36 36 36 36 37 37
30 29 28 29 30 32 34 36 38 38 39 41 44 46 47 47 47 46 46 46 45 45 45 45 45 44 44 44 44 44 43 42 42 41 40 39 37 36 36 36 35 36 36 36
30 29 28 29 30 32 35 37 37 38 38 39 42 45 47 48 47 46 45 46 45 45 46 45 45 45 44 44 44 43 43 42 42 41 40 38 37 36 35 35 35 35 35 35
30 29 30 30 31 32 34 36 38 39 38 38 40 44 47 48 48 47 46 46 46 45 44 44 45 46 44 44 44 43 42 41 40 39 38 37 36 35 34 34 34 34 34 34
29 29 33 33 33 34 34 36 38 39 38 39 40 42 45 48 49 48 48 47 46 46 45 44 45 45 44 44 44 43 42 41 40 38 37 36 35 35 34 34 33 34 34 34
29 30 33 34 35 36 36 37 38 39 39 39 40 42 44 46 48 48 48 48 48 46 45 45 46 45 45 44 42 42 42 41 39 38 37 36 35 34 34 33 33 33 33 34
30 30 31 32 34 36 37 38 39 39 40 40 40 41 43 45 46 47 48 48 48 47 46 45 45 44 44 43 42 41 41 41 40 39 38 37 35 35 34 34 34 33 34 35
30 31 30 30 32 35 37 38 39 39 40 40 40 41 42 44 45 46 47 48 48 47 46 46 44 43 43 43 42 42 40 39 38 38 37 37 35 35 35 34 34 34 34 35
30 31 31 31 32 35 37 38 39 39 39 39 39 40 42 42 43 44 45 46 47 47 46 46 45 44 43 43 42 41 41 40 39 38 37 37 36 35 34 35 35 34 35 35
29 30 31 31 32 33 36 38 39 39 40 39 38 38 40 42 42 42 44 45 46 47 46 47 46 45 43 42 42 41 40 40 39 38 37 36 36 35 35 35 35 34 34 34
27 29 30 31 32 33 34 37 38 39 39 39 38 38 39 40 41 41 42 43 44 45 45 45 45 45 44 44 43 41 40 40 39 38 37 37 36 35 35 34 33 33 33 33
26 27 28 28 29 29 31 34 36 37 38 38 37 36 36 37 39 40 41 41 41 42 43 44 44 44 44 43 42 41 40 40 39 38 38 37 36 35 34 34 33 32 33 33
24 25 26 26 27 27 27 29 32 34 35 35 35 36 36 36 38 39 40 40 40 40 41 41 42 42 42 41 40 39 39 38 38 38 37 37 36 35 34 33 33 32 33 33
22 23 23 24 24 24 25 26 29 31 32 32 33 35 35 35 36 37 37 38 38 39 39 39 39 40 39 39 38 38 38 37 37 36 35 35 34 34 33 33 33 32 32 32
21 21 21 21 21 22 23 25 27 29 29 29 30 32 33 34 34 35 35 36 36 37 37 38 39 39 38 37 37 37 36 36 35 34 34 33 33 32 32 32 32 32 32 32
21 20 20 20 19 20 23 24 26 27 27 28 29 30 31 33 33 34 34 35 35 36 36 36 37 38 37 36 35 35 34 34 33 33 33 32 31 31 31 32 32 31 31 31
19 19 19 19 19 19 19 22 24 25 26 26 27 28 29 31 32 33 33 34 34 34 35 35 35 35 35 35 35 34 34 33 33 32 31 31 31 31 32 31 31 30 30 30
18 18 18 18 18 19 19 20 21 23 24 24 25 26 28 29 31 33 34 33 33 33 34 35 34 34 34 34 33 33 32 32 31 30 31 31 31 31 30 30 29 29 29 29
17 17 16 17 17 19 20 20 21 21 22 23 25 26 27 28 29 31 31 31 31 31 32 32 32 32 32 31 31 31 31 31 31 30 30 30 29 29 29 29 29 28 28 28
15 15 15 16 17 18 20 20 21 21 21 22 23 25 25 26 28 28 29 28 28 29 30 30 30 30 29 29 30 30 30 30 30 30 30 29 29 28 28 28 28 28 28 29
Wind_Direction
236 234 233 232 230 230 232 233 234 232 229 226 226 226 227 228 226 226 227 226 226 227 228 229 230 232 234 235 237 240 241 243 244 246 248 250 251 253 256 259 262 265 268 271
238 236 235 232 230 230 231 232 233 231 228 226 227 224 224 226 226 225 226 227 227 227 226 227 228 230 232 235 237 238 240 242 244 246 247 250 251 253 255 258 261 264 268 270
242 239 237 233 230 231 231 231 232 232 228 227 228 224 223 222 224 225 224 225 226 227 226 226 226 228 230 233 235 237 238 240 243 245 247 248 250 252 255 258 261 265 268 270
243 239 240 234 231 231 232 231 232 231 228 228 227 225 223 223 223 224 223 224 226 227 226 226 226 227 229 231 233 236 238 239 241 243 245 248 250 252 255 258 262 265 268 270
245 243 239 233 233 233 232 230 231 229 227 227 227 226 224 224 224 224 223 224 227 228 228 227 227 228 230 231 233 235 237 239 240 242 245 247 249 252 255 259 262 264 266 269
248 247 241 234 233 233 234 231 228 227 225 225 225 225 223 224 224 224 224 225 227 228 228 228 228 229 230 232 234 235 237 239 240 242 245 247 248 252 255 258 260 263 265 268
248 248 244 236 237 236 234 229 227 228 227 226 225 225 223 224 225 224 224 226 227 228 228 228 228 230 231 232 234 235 237 238 240 243 244 246 248 251 254 256 259 262 265 268
246 246 244 241 241 237 234 230 229 229 229 228 227 226 223 223 224 223 223 225 226 226 227 227 227 228 229 231 232 234 236 239 241 243 244 245 248 250 253 256 259 262 265 268
245 245 242 239 239 236 234 232 230 229 230 230 229 228 226 225 224 224 224 224 225 225 226 227 227 227 228 229 231 234 236 238 241 242 243 245 247 250 252 256 259 263 266 269
244 242 241 238 237 236 235 233 229 229 230 230 228 227 226 225 225 225 224 224 224 225 225 226 227 227 227 228 229 232 234 235 238 240 242 243 246 250 253 257 260 264 267 270
245 243 240 236 235 234 233 231 228 227 228 227 225 224 225 224 224 225 224 223 223 224 223 224 226 227 229 229 229 232 233 234 236 239 241 243 246 250 253 257 260 264 267 269
246 243 241 237 235 234 233 231 228 226 228 227 225 224 224 224 225 225 225 224 225 226 225 225 226 227 228 230 230 232 233 234 236 237 239 242 246 250 254 257 261 264 266 269
248 244 242 239 238 237 235 234 232 229 229 227 226 227 226 225 225 226 226 226 227 227 227 227 227 228 229 230 231 232 233 234 235 236 239 243 247 251 255 258 260 263 267 270
250 247 244 244 243 241 238 236 235 233 230 227 226 228 228 226 225 226 226 227 227 228 227 227 226 227 228 230 232 232 232 233 234 237 240 244 247 251 255 257 260 263 267 270
249 247 246 244 244 243 241 239 236 234 231 229 229 229 230 229 227 226 227 227 227 227 226 227 227 227 228 230 231 232 232 234 236 238 240 243 247 251 253 256 260 263 266 270
248 248 247 246 245 244 243 241 238 235 233 232 230 229 229 228 228 227 226 226 226 226 225 226 227 226 227 229 230 231 232 234 235 238 241 244 246 249 253 257 260 264 267 270
252 252 252 251 249 246 245 241 239 237 235 234 232 230 229 228 226 226 226 226 226 225 225 226 225 225 225 228 230 233 233 234 236 239 241 244 246 249 253 258 261 264 267 270
255 254 254 253 251 248 245 240 237 236 235 234 232 230 228 227 226 225 225 225 224 224 224 224 224 224 226 229 231 233 234 236 237 239 242 244 247 250 254 258 261 264 267 270
254 255 257 257 253 248 243 238 234 233 233 233 232 229 226 224 224 223 224 223 223 223 223 222 223 224 226 228 230 232 234 236 238 240 242 245 247 250 254 258 261 264 268 272
260 258 256 254 251 248 243 236 232 232 233 233 232 230 226 223 222 222 222 222 221 222 222 222 221 222 223 226 228 231 233 235 237 239 243 245 248 251 255 258 261 266 270 272
265 262 259 254 250 247 242 235 230 230 231 231 230 227 225 223 222 221 220 220 220 221 221 220 220 220 222 225 227 229 232 235 238 240 243 245 248 252 255 258 262 266 269 272
265 263 257 252 247 243 238 233 230 229 228 227 225 224 223 221 219 218 218 217 218 218 219 218 219 221 223 225 226 229 233 236 238 241 244 247 249 252 255 258 262 265 268 272
263 261 253 246 244 238 232 229 228 227 227 225 223 223 221 219 216 215 215 215 216 216 217 218 219 221 223 225 227 228 232 235 237 240 244 246 247 250 254 258 262 266 269 272
262 258 249 243 239 235 230 227 226 226 224 221 219 217 215 215 214 214 214 214 214 215 215 216 218 219 221 223 225 228 232 234 237 240 242 244 247 252 255 258 262 265 268 272
260 254 245 239 236 230 225 225 224 221 217 215 213 213 212 213 213 214 213 213 213 213 215 216 218 219 221 222 225 228 230 233 236 240 243 245 249 252 255 257 260 264 269 273
256 249 242 237 231 226 223 222 219 217 214 212 210 209 208 209 211 212 213 212 211 212 213 214 216 217 218 221 224 228 231 233 238 241 243 245 248 251 255 257 260 264 270 274
249 244 240 235 230 225 222 220 217 215 213 210 206 205 206 208 208 208 208 209 210 212 212 213 214 216 219 222 225 227 231 235 238 241 244 245 248 251 255 258 262 266 271 276
Height
5513 5516 5519 5522 5527 5532 5536 5541 5547 5555 5562 5570 5575 5581 5587 5594 5600 5606 5613 5620 5626 5633 5639 5645 5651 5657 5663 5668 5673 5678 5682 5687 5690 5694 5697 5699 5701 5703 5705 5706 5707 5707 5707 5707
5505 5507 5509 5512 5518 5523 5528 5533 5539 5545 5552 5561 5565 5570 5577 5584 5590 5596 5603 5609 5616 5622 5628 5634 5640 5646 5652 5658 5663 5667 5672 5676 5680 5683 5686 5689 5691 5693 5695 5696 5697 5697 5697 5697
5496 5498 5498 5505 5512 5515 5520 5525 5530 5535 5546 5551 5555 5561 5568 5574 5580 5586 5592 5599 5606 5612 5618 5624 5630 5636 5642 5647 5652 5657 5661 5665 5669 5673 5676 5678 5680 5683 5684 5685 5686 5687 5687 5686
5486 5489 5490 5501 5503 5506 5509 5515 5520 5526 5534 5539 5544 5550 5556 5563 5569 5576 5582 5589 5595 5602 5608 5614 5619 5625 5631 5636 5641 5646 5651 5655 5659 5662 5665 5668 5670 5672 5674 5675 5676 5677 5677 5677
5477 5479 5482 5491 5495 5497 5500 5506 5511 5516 5522 5527 5532 5537 5545 5552 5559 5566 5572 5579 5585 5591 5597 5603 5609 5615 5621 5626 5631 5636 5641 5645 5648 5651 5654 5657 5660 5662 5664 5665 5666 5667 5667 5667
5469 5471 5475 5484 5486 5487 5491 5496 5501 5505 5510 5516 5520 5527 5537 5542 5548 5555 5561 5568 5574 5580 5587 5593 5599 5604 5610 5616 5621 5626 5630 5634 5637 5641 5644 5647 5649 5652 5654 5655 5656 5657 5657 5657
5461 5462 5467 5474 5476 5478 5484 5489 5492 5495 5500 5505 5510 5518 5526 5531 5537 5544 5550 5557 5563 5569 5576 5582 5588 5594 5600 5605 5611 5615 5619 5623 5626 5630 5633 5636 5639 5641 5643 5645 5646 5647 5648 5648
5454 5456 5463 5466 5466 5470 5473 5477 5481 5485 5490 5495 5500 5507 5514 5520 5526 5533 5540 5546 5553 5559 5565 5571 5577 5583 5589 5595 5600 5604 5608 5612 5616 5620 5623 5626 5629 5631 5633 5635 5636 5637 5638 5638
5447 5451 5454 5455 5457 5459 5463 5466 5470 5475 5480 5485 5490 5496 5503 5510 5516 5523 5530 5536 5542 5548 5555 5560 5566 5572 5578 5584 5589 5593 5598 5602 5606 5610 5613 5616 5619 5621 5623 5625 5626 5627 5628 5628
5438 5442 5445 5447 5448 5451 5453 5457 5461 5465 5470 5475 5480 5486 5492 5499 5506 5512 5519 5526 5532 5538 5544 5550 5556 5562 5567 5573 5578 5583 5587 5592 5596 5600 5603 5606 5609 5612 5614 5615 5617 5618 5618 5619
5428 5433 5435 5438 5440 5442 5444 5447 5451 5456 5461 5465 5470 5476 5482 5488 5495 5501 5508 5515 5521 5527 5534 5540 5545 5551 5557 5562 5567 5572 5577 5582 5586 5590 5593 5596 5599 5602 5604 5606 5607 5608 5609 5609
5420 5424 5425 5428 5431 5433 5435 5438 5442 5447 5451 5455 5460 5466 5471 5477 5484 5491 5498 5504 5510 5517 5523 5529 5535 5541 5546 5552 5557 5562 5567 5572 5576 5580 5584 5587 5590 5592 5594 5596 5597 5598 5599 5599
5411 5413 5415 5418 5421 5423 5426 5429 5433 5437 5442 5446 5451 5456 5461 5467 5474 5480 5486 5493 5499 5506 5512 5518 5524 5530 5536 5541 5547 5552 5558 5562 5566 5570 5574 5578 5580 5583 5585 5586 5587 5588 5589 5589
5402 5404 5406 5410 5412 5415 5417 5420 5423 5428 5432 5437 5442 5446 5451 5457 5463 5469 5475 5482 5488 5495 5502 5508 5514 5521 5526 5531 5537 5542 5547 5552 5556 5560 5564 5568 5570 5573 5575 5577 5578 5578 5579 5579
5393 5394 5396 5399 5402 5405 5407 5410 5414 5418 5423 5427 5431 5436 5441 5447 5452 5459 5465 5471 5477 5484 5491 5497 5504 5511 5516 5521 5526 5532 5537 5542 5546 5550 5554 5557 5560 5563 5565 5566 5568 5569 5569 5569
5384 5385 5387 5390 5392 5395 5397 5400 5404 5409 5413 5417 5421 5426 5431 5436 5442 5448 5454 5460 5466 5473 5480 5486 5493 5500 5505 5511 5516 5522 5527 5532 5536 5540 5543 5547 5550 5552 5554 5556 5558 5559 5559 5559
5375 5377 5378 5380 5382 5384 5387 5390 5393 5398 5402 5407 5411 5416 5420 5426 5432 5438 5443 5449 5455 5462 5469 5476 5482 5489 5495 5501 5506 5512 5517 5522 5526 5530 5533 5537 5540 5542 5545 5547 5548 5549 5549 5549
5366 5368 5369 5370 5371 5373 5376 5379 5382 5387 5391 5396 5400 5405 5410 5415 5421 5428 5433 5439 5445 5452 5458 5465 5472 5478 5485 5491 5496 5502 5507 5511 5516 5520 5523 5527 5530 5532 5535 5537 5538 5539 5539 5539
5357 5358 5359 5360 5360 5362 5365 5368 5372 5376 5381 5385 5390 5395 5400 5405 5411 5417 5423 5429 5435 5441 5448 5454 5461 5467 5474 5481 5486 5491 5496 5501 5506 5510 5513 5517 5520 5522 5525 5527 5528 5529 5529 5529
5348 5349 5349 5350 5351 5353 5355 5358 5362 5367 5371 5376 5380 5385 5390 5396 5401 5407 5413 5419 5425 5431 5438 5444 5451 5458 5464 5470 5476 5482 5487 5491 5496 5500 5504 5507 5510 5513 5515 5517 5518 5519 5519 5519
5340 5341 5341 5341 5343 5344 5347 5350 5354 5358 5362 5366 5370 5376 5381 5386 5392 5397 5404 5411 5417 5422 5429 5435 5442 5449 5455 5461 5467 5472 5477 5482 5486 5490 5494 5497 5500 5503 5505 5507 5508 5509 5509 5509
5333 5333 5333 5334 5335 5337 5340 5343 5346 5350 5354 5358 5363 5368 5373 5378 5384 5390 5396 5403 5409 5414 5421 5427 5434 5440 5446 5452 5458 5464 5468 5473 5477 5481 5484 5487 5490 5493 5495 5497 5498 5499 5499 5499
5326 5326 5326 5327 5329 5331 5334 5337 5340 5343 5347 5351 5356 5361 5366 5371 5377 5383 5389 5395 5401 5407 5413 5420 5426 5432 5438 5444 5449 5455 5459 5464 5468 5472 5475 5478 5481 5483 5486 5487 5489 5489 5489 5489
5320 5320 5321 5322 5323 5326 5329 5332 5335 5338 5341 5345 5350 5355 5360 5365 5371 5376 5382 5388 5394 5400 5407 5413 5418 5424 5430 5436 5441 5446 5451 5455 5459 5463 5466 5469 5472 5474 5476 5478 5479 5479 5479 5479
5314 5315 5316 5317 5319 5321 5324 5327 5330 5333 5337 5341 5345 5350 5355 5360 5366 5371 5376 5382 5388 5394 5400 5406 5412 5417 5423 5428 5433 5438 5442 5447 5450 5453 5457 5460 5462 5465 5466 5468 5469 5470 5470 5470
5309 5310 5311 5313 5315 5317 5320 5323 5326 5329 5333 5337 5342 5346 5351 5356 5361 5366 5372 5377 5383 5388 5394 5400 5405 5411 5416 5421 5425 5430 5434 5438 5442 5445 5448 5451 5453 5455 5457 5458 5459 5460 5460 5460
5304 5305 5307 5309 5311 5314 5316 5319 5323 5326 5330 5334 5338 5343 5347 5352 5357 5362 5367 5372 5377 5383 5388 5393 5399 5404 5409 5413 5418 5422 5426 5430 5433 5436 5439 5442 5444 5446 5448 5449 5450 5450 5450 5450